YO8RXT-3 Weather Reports


Display with metric or nautical units.
time (UTC)temp
F
wind
direction
speed
MPH
gust
MPH
rain 1hr
in
rain 24hr
in
rain mn
in
humidity
%
barometer
mb
20260504050503 50 240 5.0 0.0 0.00 0.00 0.00 58 1016.0
20260504043503 46 190 3.0 0.0 0.00 0.00 0.00 71 1016.0
20260504040503 46 2.0 0.0 0.00 0.00 0.00 71 1016.0
20260504033503 48 2.0 0.0 0.00 0.00 0.00 58 1016.0
20260504030502 48 2.0 0.0 0.00 0.00 0.00 58 1016.0
20260504023503 48 240 5.0 0.0 0.00 0.00 0.00 58 1016.0
20260504020503 48 2.0 0.0 0.00 0.00 0.00 54 1016.0
20260504013503 48 230 1.0 0.0 0.00 0.00 0.00 58 1016.0
20260504010503 48 0 0.0 0.0 0.00 0.00 0.00 58 1016.0
20260504003503 48 2.0 0.0 0.00 0.00 0.00 58 1017.0
20260504000502 46 2.0 0.0 0.00 0.00 0.00 66 1017.0
20260503233503 50 240 2.0 0.0 0.00 0.00 0.00 50 1017.0
20260503230503 50 270 5.0 0.0 0.00 0.00 0.00 50 1017.0
20260503223502 52 250 2.0 0.0 0.00 0.00 0.00 44 1017.0
20260503220504 52 240 2.0 0.0 0.00 0.00 0.00 44 1017.0
20260503213503 52 1.0 0.0 0.00 0.00 0.00 44 1017.0
20260503210502 54 2.0 0.0 0.00 0.00 0.00 41 1017.0
20260503203502 54 220 5.0 0.0 0.00 0.00 0.00 41 1018.0
20260503200502 54 230 5.0 0.0 0.00 0.00 0.00 41 1018.0
20260503193502 54 220 5.0 0.0 0.00 0.00 0.00 44 1018.0
20260503190503 54 210 5.0 0.0 0.00 0.00 0.00 41 1018.0
20260503183502 57 220 3.0 0.0 0.00 0.00 0.00 36 1018.0
20260503180502 57 260 3.0 0.0 0.00 0.00 0.00 33 1018.0
20260503173502 57 270 5.0 0.0 0.00 0.00 0.00 36 1018.0
20260503170503 59 2.0 0.0 0.00 0.00 0.00 34 1018.0
20260503150503 61 310 5.0 0.0 0.00 0.00 0.00 31 1019.0
20260503130502 61 3.0 0.0 0.00 0.00 0.00 27 1020.0
20260503110502 61 3.0 0.0 0.00 0.00 0.00 27 1022.0
20260503090502 59 70 6.0 0.0 0.00 0.00 0.00 31 1023.0
20260503080502 57 2.0 0.0 0.00 0.00 0.00 27 1023.0
20260503070503 55 2.0 0.0 0.00 0.00 0.00 33 1023.0